Wind_Speed
35 36 36 36 37 38 39 39 40 40 39 39 41 42 44 45 46 46 47 47 45 45 47 45 45 45 41 43 49 49 50 49 50 48 55 52 55 56 51 44 47 45 39
38 39 39 38 38 40 41 42 42 41 40 41 42 43 44 45 47 46 45 44 43 41 41 44 42 44 43 46 46 50 50 50 50 49 53 49 53 57 51 49 49 45 41
39 40 41 40 40 40 41 42 43 42 42 41 43 43 44 47 44 44 50 49 47 45 41 39 40 42 44 42 44 48 51 50 50 51 51 48 49 55 55 51 48 44 42
42 43 44 42 41 42 42 43 44 44 44 44 44 45 47 47 45 49 49 47 43 42 39 39 37 41 41 41 44 45 49 51 50 50 50 48 48 52 53 49 46 45 43
44 44 45 42 44 44 45 47 47 44 45 46 47 49 48 48 50 49 47 39 36 38 37 37 36 39 40 39 40 43 44 50 50 48 49 49 48 49 47 47 47 46 44
45 46 44 44 45 46 48 48 46 46 46 46 48 51 52 51 45 44 42 35 36 35 34 35 34 37 33 38 38 40 43 46 49 49 47 49 47 47 50 49 47 48 44
45 45 44 45 47 48 48 48 48 47 46 46 49 50 48 44 40 41 37 32 32 33 33 35 35 37 34 20 31 41 39 42 46 47 46 46 49 47 46 49 50 48 44
44 45 47 48 47 48 50 51 51 48 49 50 47 46 44 40 35 34 30 25 30 32 33 35 36 37 39 33 40 39 35 36 40 45 45 44 42 47 46 47 48 50 48
46 46 48 50 49 49 52 51 50 49 50 49 46 46 41 37 34 30 28 23 30 34 36 38 38 36 37 34 30 36 31 34 36 38 42 43 43 49 47 47 47 51 49
46 48 49 50 51 50 50 47 56 42 50 46 46 46 41 38 33 35 30 28 32 34 33 35 37 37 33 30 25 29 27 33 36 36 36 39 41 41 46 47 47 47 46
47 48 50 50 51 48 45 44 37 57 48 46 45 43 42 37 16 34 27 30 30 30 30 34 35 37 32 18 13 27 30 30 34 34 33 35 38 38 41 44 45 44 44
46 48 49 51 48 48 44 42 45 47 47 45 42 41 39 29 32 25 32 26 27 30 30 31 32 40 19 6 12 10 25 28 30 31 33 34 35 35 38 41 43 45 41
47 48 48 49 46 46 44 45 47 43 41 40 40 35 27 29 33 25 24 23 22 26 27 26 29 35 18 2 5 9 10 22 26 29 32 35 35 36 38 40 42 44 41
48 48 47 47 45 45 43 46 42 38 38 39 36 32 28 20 30 22 20 21 21 23 25 23 27 31 29 5 5 9 5 18 28 35 35 38 39 37 36 36 39 41 41
49 49 47 46 45 44 42 39 38 38 36 36 34 26 22 26 22 20 23 22 23 24 23 22 25 24 29 27 8 5 5 13 20 30 24 31 29 31 34 38 40 41 43
51 48 46 45 44 44 40 38 36 34 36 34 29 25 24 24 19 19 19 19 23 24 23 20 23 22 21 26 25 6 3 4 3 19 22 29 33 35 36 36 37 38 39
49 45 44 43 42 40 40 39 38 33 35 31 26 31 27 23 19 20 21 21 22 21 19 18 22 20 18 19 22 22 5 3 6 2 12 21 21 24 41 45 34 34 35
44 42 43 42 39 39 39 38 37 33 32 33 27 29 28 24 23 21 20 20 18 18 18 17 18 16 15 16 16 18 28 20 6 5 1 11 20 26 30 38 40 39 42
41 42 40 38 36 37 37 36 35 33 30 33 31 24 18 21 20 18 18 17 17 18 19 19 18 18 17 18 18 17 18 19 24 19 11 6 18 25 23 34 29 36 35
39 39 37 35 33 33 35 34 34 32 30 31 32 30 25 18 20 21 23 23 24 23 21 21 21 22 21 21 22 20 18 17 17 15 17 18 11 6 20 31 24 40 44
37 34 33 32 31 32 32 31 29 27 26 24 27 21 23 21 22 25 25 23 22 22 23 22 23 23 24 25 24 22 21 20 19 18 15 13 12 14 17 13 22 18 29
33 30 30 32 32 32 32 30 29 28 27 26 26 26 24 19 16 19 20 21 20 22 23 23 23 24 24 25 25 25 24 23 22 23 21 20 18 14 14 14 13 17 17
32 33 32 32 32 31 29 28 29 30 28 28 28 27 26 24 24 24 24 23 23 25 25 25 25 26 26 28 29 29 29 30 30 29 28 27 27 24 22 20 19 20 20
32 32 32 33 32 31 31 33 32 32 31 29 27 26 26 26 25 26 25 25 25 26 27 26 28 29 30 31 32 32 33 33 34 34 33 32 31 31 30 29 28 27 27
32 32 31 28 26 27 26 27 26 27 26 26 26 25 25 26 26 26 27 27 28 28 30 30 31 31 32 32 31 31 31 32 32 33 31 30 30 31 32 31 31 32 33
32 28 26 25 24 26 28 29 29 29 28 28 29 29 29 29 29 29 29 29 28 27 27 28 29 30 27 26 26 26 27 27 27 28 29 28 28 28 29 29 30 31 31
Wind_Direction
306 308 308 306 304 307 308 309 309 307 306 306 306 307 309 309 304 303 305 302 298 291 290 288 285 280 272 269 260 255 251 250 244 238 235 236 236 239 237 250 247 246 245
303 306 308 308 306 308 310 310 308 307 306 306 307 309 309 306 307 308 304 301 295 294 291 286 282 278 268 269 263 257 252 248 246 238 238 233 238 233 235 232 243 243 244
301 304 306 308 308 310 309 309 309 307 307 307 309 311 308 309 306 304 302 301 296 293 296 290 285 282 272 269 260 255 253 249 246 242 237 236 240 235 233 237 239 242 243
303 306 309 310 311 311 311 311 310 309 310 312 312 312 310 308 305 306 303 301 298 292 291 293 294 292 283 267 259 252 251 248 246 242 240 234 235 235 233 234 239 241 241
305 307 308 311 314 313 313 313 311 310 311 313 314 314 311 308 309 303 300 300 294 296 297 298 292 303 291 278 261 250 248 245 245 242 239 234 234 234 235 236 237 240 238
304 307 309 312 313 313 310 308 312 313 313 315 314 313 311 310 306 302 300 293 295 300 297 300 301 307 298 277 259 252 248 242 241 240 237 234 233 233 234 235 235 237 237
304 305 308 311 312 308 308 312 314 312 313 314 313 313 313 314 308 304 298 293 295 295 297 304 305 309 307 261 246 249 243 237 237 238 235 234 231 231 233 236 235 236 235
302 304 310 309 307 309 312 314 313 312 315 315 315 317 318 314 310 304 304 294 290 296 300 306 310 305 306 299 259 249 245 238 236 236 232 234 232 232 230 232 234 233 233
300 307 306 304 308 311 313 313 311 313 313 313 317 320 318 316 310 300 302 299 300 303 304 303 307 308 305 301 260 248 249 241 236 237 237 235 233 230 229 229 231 234 233
301 301 301 301 305 310 310 310 306 310 314 313 315 319 316 310 308 301 292 293 304 304 304 305 308 307 306 301 274 262 249 244 237 233 234 236 237 235 232 230 232 233 235
293 294 295 300 305 307 307 308 294 308 307 309 314 314 312 305 294 291 294 296 302 306 312 311 312 308 316 292 284 267 252 234 236 227 228 234 236 235 232 231 232 234 235
291 295 297 299 304 306 304 303 300 301 306 310 314 313 309 282 307 299 294 298 305 305 310 312 312 318 313 318 278 292 242 235 231 223 220 223 227 229 228 230 230 230 233
294 295 296 301 305 304 302 303 303 306 309 314 308 307 304 294 295 289 290 301 307 308 311 316 320 325 350 328 317 345 183 219 221 220 219 220 224 227 225 226 229 231 232
296 298 300 302 301 300 301 301 303 307 309 310 308 301 296 291 298 283 288 302 317 313 310 318 326 333 346 317 351 4 283 200 221 219 214 218 221 223 224 224 225 228 232
297 297 298 299 297 297 301 298 301 308 308 308 302 295 287 290 287 288 292 303 318 314 306 314 325 326 338 343 353 17 323 243 216 216 197 194 203 217 227 222 224 228 230
296 295 297 296 294 292 298 294 297 304 306 307 290 285 289 286 287 294 298 302 314 313 306 310 323 327 328 332 338 14 312 264 281 210 198 212 208 204 224 220 219 224 226
295 294 292 290 288 291 290 291 300 300 304 297 278 277 283 274 280 296 304 297 307 310 311 306 322 332 327 333 332 338 319 304 297 356 186 213 222 210 214 209 208 208 221
293 290 288 288 287 284 287 289 291 295 297 296 282 277 268 268 278 289 293 290 295 300 311 307 316 327 335 343 343 342 342 349 322 310 308 221 225 233 227 207 208 206 219
288 286 286 283 282 282 285 286 288 290 290 293 286 282 255 269 274 274 275 283 306 305 301 304 307 312 321 330 332 334 336 343 341 350 350 220 223 225 213 202 222 215 222
282 284 283 279 279 283 285 286 286 286 290 291 280 280 255 259 273 278 279 281 290 302 302 299 298 300 305 312 316 319 319 315 322 329 338 347 340 249 220 216 213 214 230
283 280 278 279 284 288 291 292 291 287 296 280 281 274 260 257 269 269 276 280 282 286 289 288 288 290 295 301 303 305 308 309 311 310 316 312 318 331 335 310 221 224 210
281 278 275 282 286 292 289 287 289 291 293 294 293 292 293 286 272 273 272 274 281 284 284 286 289 290 292 293 296 298 298 299 298 298 298 298 297 291 289 295 302 312 315
280 280 280 282 287 291 287 283 288 292 292 291 290 290 290 288 286 281 279 278 280 282 282 285 287 287 288 290 292 292 294 295 295 294 292 291 291 289 285 277 271 273 275
281 283 284 284 285 285 282 280 282 284 287 290 289 288 287 287 285 285 285 285 283 283 284 285 285 285 285 285 286 288 289 289 289 289 288 289 287 286 283 281 279 276 273
285 285 285 287 284 283 283 282 282 283 284 286 286 286 285 284 284 284 284 283 282 283 283 285 286 286 288 288 287 286 286 286 287 287 284 282 280 279 277 275 274 272 271
285 285 285 284 282 282 280 280 281 282 283 284 286 287 287 286 283 281 280 280 280 281 283 283 284 286 286 285 284 284 284 283 281 279 279 278 276 274 273 271 270 268 266
Height
5876 5874 5871 5867 5863 5859 5854 5849 5845 5840 5836 5831 5827 5822 5817 5812 5807 5801 5795 5792 5787 5782 5777 5773 5770 5765 5762 5761 5761 5762 5765 5768 5772 5780 5782 5787 5793 5801 5810 5814 5819 5822 5828
5870 5866 5862 5859 5854 5850 5845 5841 5836 5832 5827 5823 5818 5813 5808 5802 5797 5791 5785 5779 5774 5769 5765 5760 5756 5752 5750 5748 5747 5749 5751 5756 5758 5767 5768 5774 5778 5786 5797 5800 5807 5812 5817
5863 5859 5855 5851 5846 5842 5837 5832 5827 5822 5818 5814 5809 5804 5798 5792 5787 5781 5774 5767 5761 5757 5752 5747 5744 5740 5737 5735 5733 5735 5737 5742 5746 5751 5757 5762 5766 5774 5783 5790 5797 5802 5807
5854 5849 5845 5842 5838 5834 5828 5823 5817 5812 5807 5803 5798 5793 5787 5781 5776 5769 5760 5755 5748 5743 5740 5736 5732 5726 5722 5721 5719 5721 5723 5728 5734 5739 5744 5750 5756 5762 5770 5779 5785 5792 5799
5845 5841 5836 5833 5829 5824 5818 5813 5807 5802 5796 5791 5786 5781 5775 5770 5763 5755 5749 5743 5737 5733 5729 5725 5721 5716 5709 5707 5706 5707 5710 5715 5721 5727 5733 5738 5745 5753 5761 5770 5777 5782 5789
5838 5833 5829 5824 5820 5814 5809 5803 5797 5791 5786 5780 5775 5769 5764 5757 5750 5743 5737 5733 5729 5725 5721 5716 5711 5706 5700 5695 5695 5696 5698 5702 5708 5715 5721 5728 5736 5743 5749 5758 5765 5770 5778
5830 5825 5821 5816 5811 5805 5799 5793 5788 5782 5775 5770 5764 5758 5751 5745 5739 5732 5728 5724 5722 5717 5714 5709 5703 5696 5690 5684 5685 5685 5686 5690 5697 5703 5711 5718 5725 5733 5741 5746 5753 5760 5768
5822 5817 5811 5806 5802 5796 5789 5783 5777 5771 5765 5760 5753 5747 5741 5736 5730 5724 5720 5717 5714 5710 5706 5701 5694 5688 5681 5677 5673 5674 5678 5682 5688 5694 5701 5708 5715 5724 5728 5736 5743 5749 5755
5812 5807 5802 5797 5792 5787 5780 5774 5768 5761 5755 5749 5743 5738 5733 5727 5722 5718 5714 5711 5708 5704 5699 5693 5687 5681 5673 5667 5664 5665 5669 5674 5678 5685 5693 5699 5706 5712 5719 5725 5731 5737 5746
5802 5798 5793 5788 5783 5778 5771 5764 5753 5749 5746 5741 5736 5730 5724 5719 5716 5712 5708 5706 5702 5697 5692 5686 5680 5674 5667 5659 5656 5657 5660 5664 5669 5676 5683 5691 5697 5704 5708 5715 5722 5729 5737
5794 5790 5784 5778 5773 5768 5762 5754 5745 5740 5739 5733 5727 5722 5714 5708 5707 5708 5703 5700 5696 5692 5687 5680 5674 5667 5660 5653 5652 5650 5650 5655 5660 5667 5674 5681 5687 5693 5699 5707 5713 5720 5727
5784 5778 5773 5768 5763 5756 5752 5748 5741 5736 5729 5724 5719 5713 5707 5701 5701 5700 5697 5693 5691 5687 5682 5676 5671 5662 5654 5651 5647 5643 5643 5648 5653 5659 5665 5672 5678 5684 5691 5697 5703 5710 5717
5771 5767 5762 5756 5752 5746 5741 5736 5730 5725 5720 5714 5710 5708 5703 5698 5695 5696 5691 5688 5685 5681 5676 5672 5666 5658 5649 5647 5642 5638 5637 5644 5648 5651 5657 5663 5670 5676 5680 5687 5694 5700 5707
5759 5755 5750 5744 5740 5734 5730 5724 5720 5717 5711 5706 5703 5699 5696 5687 5689 5689 5686 5683 5679 5676 5672 5668 5663 5657 5648 5644 5641 5636 5634 5638 5642 5645 5646 5652 5660 5666 5673 5679 5685 5692 5698
5748 5743 5738 5733 5728 5724 5722 5716 5710 5707 5703 5698 5694 5692 5690 5685 5683 5682 5680 5677 5674 5671 5668 5665 5661 5657 5650 5644 5641 5636 5633 5633 5633 5636 5637 5643 5651 5657 5664 5671 5676 5682 5687
5736 5731 5726 5722 5718 5713 5711 5708 5703 5699 5694 5690 5686 5684 5683 5679 5678 5676 5674 5673 5670 5667 5664 5662 5659 5655 5651 5647 5641 5638 5634 5631 5630 5629 5629 5636 5641 5647 5655 5662 5667 5671 5677
5722 5718 5714 5711 5707 5704 5700 5696 5693 5689 5685 5681 5678 5676 5675 5673 5671 5669 5668 5667 5666 5663 5660 5659 5656 5654 5650 5648 5643 5637 5634 5632 5630 5628 5627 5633 5638 5640 5646 5652 5658 5656 5666
5709 5706 5702 5698 5697 5692 5689 5686 5682 5680 5676 5674 5670 5668 5666 5666 5665 5663 5662 5662 5660 5658 5656 5655 5654 5652 5650 5647 5644 5641 5636 5631 5630 5628 5628 5630 5633 5636 5639 5642 5648 5652 5658
5696 5692 5690 5687 5685 5681 5678 5676 5673 5671 5668 5665 5663 5660 5660 5660 5658 5658 5657 5657 5655 5653 5652 5650 5650 5649 5647 5645 5644 5642 5640 5638 5634 5631 5629 5629 5631 5633 5635 5637 5641 5645 5650
5684 5681 5678 5676 5674 5671 5669 5666 5664 5662 5659 5657 5655 5654 5653 5654 5652 5651 5651 5650 5649 5647 5646 5646 5645 5644 5643 5643 5642 5640 5639 5638 5637 5635 5633 5631 5629 5629 5630 5634 5635 5637 5642
5672 5670 5668 5666 5664 5662 5660 5657 5655 5653 5652 5650 5649 5647 5646 5647 5645 5644 5643 5642 5642 5641 5640 5640 5639 5639 5637 5637 5638 5637 5635 5634 5633 5633 5633 5633 5633 5632 5630 5630 5630 5632 5634
5662 5661 5658 5657 5655 5653 5651 5649 5647 5645 5644 5642 5641 5639 5639 5637 5636 5637 5636 5635 5634 5634 5634 5633 5632 5632 5632 5631 5631 5631 5630 5630 5630 5629 5629 5629 5630 5630 5631 5631 5631 5630 5629
5653 5652 5649 5647 5645 5644 5642 5641 5639 5637 5636 5634 5633 5632 5630 5630 5628 5629 5629 5627 5626 5626 5625 5624 5624 5624 5624 5623 5623 5623 5623 5622 5622 5622 5623 5623 5623 5624 5625 5627 5628 5629 5629
5644 5642 5640 5638 5636 5634 5634 5632 5631 5629 5627 5626 5624 5623 5622 5621 5620 5620 5619 5618 5618 5617 5616 5615 5615 5615 5615 5615 5615 5614 5613 5613 5613 5613 5613 5613 5614 5615 5616 5618 5619 5621 5621
5635 5633 5631 5629 5627 5626 5624 5623 5622 5620 5619 5618 5616 5615 5614 5613 5612 5611 5610 5609 5609 5608 5607 5605 5604 5604 5604 5603 5603 5603 5603 5603 5602 5601 5601 5602 5603 5603 5604 5606 5608 5610 5612
5626 5623 5621 5620 5619 5617 5616 5615 5613 5612 5610 5609 5607 5606 5605 5604 5603 5602 5602 5600 5599 5598 5596 5595 5594 5593 5593 5592 5592 5591 5591 5591 5592 5592 5591 5591 5591 5592 5593 5594 5595 5596 5599